Wind_Speed
10 10 9 9 10 9 9 8 8 8 8 7 8 8 8 8 8 8 8 7 7 7 7 7 6 6 6 6 6 6 6 6 6 6 6 6 7 7 8 8 8 8 9
10 10 10 10 10 10 9 9 9 9 8 8 8 8 9 8 8 8 8 8 8 7 7 7 6 6 6 6 6 6 6 6 6 6 6 7 8 8 8 9 9 9 10
11 11 11 10 10 10 10 9 9 9 9 9 9 9 9 9 9 9 8 8 8 8 8 7 7 7 6 6 6 6 6 6 6 6 7 8 8 9 9 10 10 11 11
12 12 11 11 11 10 10 10 10 10 9 9 9 9 9 9 10 9 9 9 8 8 8 8 8 8 8 7 7 7 7 7 7 7 8 8 9 9 10 10 11 11 12
13 12 12 12 12 11 11 11 10 10 10 10 10 10 10 10 10 10 9 9 9 9 9 9 9 9 9 8 8 8 8 8 8 8 9 9 10 10 10 11 12 12 13
14 13 14 13 13 12 12 11 11 11 11 11 11 11 11 11 10 10 10 10 10 9 9 9 9 9 9 9 9 9 9 10 10 10 10 11 11 11 12 12 13 13 13
15 15 15 15 14 14 13 12 12 12 12 12 12 12 12 12 11 11 11 10 11 10 10 10 10 10 10 10 10 10 10 10 10 10 11 11 12 12 13 13 13 14 14
16 16 16 16 15 14 14 13 13 13 13 13 13 12 12 12 13 12 11 11 11 11 11 11 11 11 11 11 11 11 11 11 11 11 12 12 12 13 13 14 15 15 16
18 17 17 16 16 15 15 14 14 14 13 13 13 13 13 14 14 14 13 13 13 12 12 12 13 12 12 12 12 12 12 12 12 12 13 13 14 15 15 16 16 17 17
19 19 18 18 17 16 16 16 16 15 14 14 14 15 15 15 15 15 15 15 14 14 14 15 15 14 14 14 14 14 14 14 15 15 15 16 16 17 17 18 18 18 18
21 20 20 19 19 18 17 17 17 17 16 16 15 16 16 16 17 17 16 16 16 16 15 16 16 15 16 16 16 16 17 17 17 18 18 18 18 19 19 19 20 19 19
22 21 21 21 20 19 18 18 17 17 17 17 17 16 16 16 17 17 17 17 17 17 16 16 16 16 17 17 17 17 18 19 19 19 19 19 20 21 20 20 20 20 21
23 22 21 21 20 20 19 19 19 18 18 18 18 17 17 16 16 17 17 17 18 18 18 18 18 18 18 19 19 19 20 20 20 21 21 21 22 22 22 22 22 22 22
23 23 22 22 21 21 21 20 20 19 18 18 18 17 17 17 17 17 17 17 18 19 19 19 19 19 20 20 21 21 21 22 22 22 23 23 23 23 23 23 23 24 24
24 23 24 24 23 23 22 22 21 21 20 19 19 18 18 18 18 19 19 19 19 20 20 20 21 21 21 21 21 22 22 23 23 24 24 24 24 24 24 24 24 25 25
25 24 24 24 24 24 24 23 23 22 22 21 21 21 20 20 20 20 20 21 21 21 22 22 22 22 22 22 23 23 24 24 25 25 25 25 25 26 26 26 26 26 26
26 26 25 25 25 25 25 25 24 24 23 23 22 22 21 21 21 22 22 22 22 22 22 22 22 22 23 23 24 25 25 26 26 26 26 26 26 26 26 26 26 27 28
27 28 27 27 26 26 26 25 25 25 24 24 24 24 23 23 22 22 22 22 22 23 23 23 23 23 23 24 24 25 25 26 26 25 25 25 25 25 26 26 27 28 29
28 28 29 29 28 27 26 26 26 26 26 25 25 25 25 24 24 24 23 23 23 23 23 23 23 23 23 24 24 25 25 25 26 25 25 26 26 26 26 27 27 28 29
28 29 29 30 30 29 28 27 27 27 27 26 26 26 26 26 25 25 24 24 24 24 24 23 24 24 24 24 25 25 25 25 25 26 26 27 27 28 28 29 29 30 30
29 30 30 31 31 31 29 29 29 29 28 27 27 27 27 27 26 26 26 25 25 25 25 24 25 25 25 26 26 26 26 26 26 27 27 27 28 28 29 30 30 31 31
29 30 31 32 32 32 31 30 30 30 29 29 28 28 27 27 27 27 27 28 27 27 27 27 26 26 26 26 27 27 27 27 28 28 28 29 29 29 29 30 31 31 32
29 30 31 32 33 32 32 31 31 31 31 30 30 29 29 28 28 29 29 29 29 29 29 28 28 28 28 28 28 28 29 29 29 29 29 30 30 30 30 31 32 32 33
29 30 31 32 33 33 33 32 32 32 32 32 30 30 30 30 29 29 30 30 30 30 30 30 30 30 30 30 29 30 30 31 31 31 31 30 30 30 30 31 32 33 33
30 31 32 32 32 33 33 33 33 33 33 33 32 31 31 31 31 31 30 30 31 31 31 31 31 31 31 31 31 30 30 30 30 30 30 30 30 30 31 32 32 33 34
31 31 31 32 32 33 33 33 33 33 33 33 33 33 33 33 32 32 32 32 32 32 32 32 32 32 32 32 32 31 31 30 30 30 30 31 31 31 32 32 33 33 33
Wind_Direction
268 266 265 260 261 264 265 263 260 257 255 250 247 246 244 241 239 240 239 236 238 244 246 246 244 240 250 258 263 265 266 270 275 279 288 299 305 309 313 318 323 324 324
266 265 264 258 259 262 263 259 257 255 255 252 248 248 247 241 239 242 242 240 244 247 241 241 242 247 254 258 263 266 267 270 276 281 290 298 302 308 315 321 323 321 321
261 262 260 254 256 259 259 256 255 255 254 251 248 250 248 243 243 241 241 241 241 239 237 242 246 251 254 259 262 264 268 273 279 286 292 297 301 306 311 317 320 319 320
259 259 256 251 252 255 256 255 254 251 250 249 251 249 246 244 242 242 242 242 236 235 239 244 247 251 254 259 263 266 271 277 283 286 289 294 299 304 307 311 314 316 319
256 255 251 251 251 251 252 252 252 251 249 251 253 250 246 243 241 242 241 238 233 237 241 244 247 251 255 257 263 268 272 276 281 283 286 292 297 302 306 309 312 315 319
251 251 248 249 251 249 250 251 250 251 250 251 251 249 245 241 240 239 237 234 233 239 243 247 250 255 258 258 263 268 273 278 281 283 285 290 295 298 302 306 310 313 315
247 246 246 249 250 248 246 247 248 250 250 249 249 249 246 243 241 241 239 237 237 241 246 249 252 254 256 259 265 270 272 278 284 286 287 290 294 295 299 303 306 310 313
245 243 246 250 248 246 244 244 246 250 251 249 249 248 248 246 244 245 244 241 240 244 249 251 254 257 257 261 266 269 272 277 281 285 287 289 290 294 298 300 302 305 308
244 244 246 249 246 244 243 244 246 248 250 250 250 250 249 248 246 246 246 245 245 249 254 256 258 259 259 262 265 269 272 275 279 282 285 288 289 292 295 297 300 303 305
243 243 245 247 245 242 242 245 247 248 249 250 250 250 250 249 247 247 248 248 248 253 256 259 260 260 261 264 266 268 271 275 278 280 283 287 288 291 293 295 298 300 303
244 244 244 244 242 241 241 243 246 247 248 249 250 251 251 251 248 249 251 251 251 255 259 261 261 262 263 265 267 269 271 274 278 280 283 283 286 289 292 293 294 296 301
244 244 244 242 241 240 240 243 244 245 247 250 251 251 253 253 250 250 251 251 252 256 260 261 262 263 266 267 269 271 273 275 278 280 282 283 285 287 289 291 292 293 298
241 243 244 243 242 241 243 244 244 246 248 249 251 253 253 251 250 250 252 252 253 256 260 262 262 264 267 268 269 271 274 276 278 281 283 285 286 287 287 288 290 293 297
240 241 242 242 242 242 243 245 246 246 248 249 251 253 251 250 251 252 252 255 258 260 262 263 265 267 269 270 271 273 274 275 277 280 283 285 288 288 288 290 290 293 295
241 241 242 242 242 241 243 244 246 246 247 248 250 252 253 253 254 255 256 258 260 261 263 265 266 268 270 271 273 275 275 276 278 279 281 284 286 288 288 289 291 294 296
244 242 242 241 240 239 242 243 245 245 247 248 250 252 253 253 254 256 258 260 261 262 265 267 267 268 270 272 274 276 278 278 278 279 281 283 285 286 287 287 289 291 294
246 245 243 242 241 242 242 243 245 247 248 250 250 252 255 255 256 257 260 262 263 264 265 266 267 269 270 272 275 277 279 280 280 280 281 282 284 286 286 286 287 289 291
247 245 244 243 243 244 244 244 245 247 249 251 252 252 254 255 257 258 260 262 264 265 266 266 268 270 272 274 277 280 280 280 281 280 281 283 284 286 287 288 289 290 291
246 245 246 245 243 244 244 245 246 248 250 252 253 253 254 255 257 258 259 261 264 265 266 266 268 271 274 277 279 281 282 281 280 280 281 283 284 285 287 289 291 292 293
248 247 246 245 244 244 246 247 248 249 251 252 253 254 254 255 257 257 258 260 262 264 266 268 269 271 275 278 280 282 284 283 281 280 282 283 285 285 287 289 290 292 294
250 249 246 245 245 245 246 247 249 249 250 251 252 254 255 256 256 256 257 258 261 264 266 268 270 272 275 278 280 282 283 283 282 282 283 283 284 286 287 288 290 292 294
250 248 246 245 246 247 246 246 248 249 249 250 252 253 254 255 256 258 259 260 262 264 267 269 271 273 276 279 280 282 282 282 283 283 282 283 285 286 288 289 291 293 293
249 248 246 245 244 245 247 246 247 248 249 251 252 253 255 256 256 258 261 262 263 265 267 268 270 272 275 278 280 282 282 282 282 283 283 284 286 287 288 290 291 293 293
250 248 247 244 244 245 247 247 247 248 250 252 253 254 255 256 257 258 260 262 263 265 267 269 271 273 275 277 279 282 282 282 282 283 284 285 286 287 288 290 291 292 293
249 247 247 246 246 246 246 247 249 250 251 251 253 254 256 257 258 260 262 262 264 266 268 269 271 274 276 277 279 281 282 282 283 284 285 286 286 287 289 291 293 294 295
248 247 246 245 245 246 246 246 247 249 251 252 253 255 257 259 261 261 262 263 265 267 268 269 271 273 276 277 278 280 281 281 282 283 284 285 287 288 290 291 293 294 295
Height
5821 5821 5821 5821 5822 5822 5822 5822 5823 5823 5823 5824 5824 5824 5825 5826 5826 5827 5828 5828 5829 5829 5830 5830 5831 5832 5832 5832 5833 5833 5833 5833 5833 5833 5832 5832 5831 5831 5829 5828 5827 5826 5825
5818 5818 5818 5818 5819 5819 5820 5820 5820 5821 5821 5822 5822 5822 5823 5823 5824 5825 5826 5826 5827 5828 5828 5829 5829 5830 5830 5831 5831 5831 5831 5831 5831 5831 5831 5830 5830 5829 5828 5827 5826 5825 5823
5814 5814 5815 5815 5816 5817 5817 5817 5818 5818 5819 5819 5820 5820 5821 5821 5822 5823 5824 5824 5825 5826 5826 5827 5828 5828 5829 5829 5829 5829 5829 5829 5829 5829 5829 5828 5828 5827 5826 5825 5824 5822 5821
5810 5811 5811 5812 5812 5813 5814 5815 5815 5816 5816 5817 5817 5818 5818 5819 5820 5821 5821 5822 5823 5824 5825 5825 5826 5826 5827 5827 5827 5828 5828 5828 5827 5827 5827 5826 5825 5825 5824 5823 5822 5820 5819
5806 5807 5808 5808 5809 5810 5811 5812 5812 5813 5814 5814 5815 5815 5816 5817 5817 5818 5819 5820 5820 5821 5822 5823 5824 5824 5825 5825 5825 5825 5825 5825 5825 5825 5824 5824 5823 5822 5821 5820 5819 5818 5816
5802 5803 5804 5805 5806 5807 5807 5808 5809 5810 5811 5811 5812 5812 5813 5814 5815 5816 5817 5817 5818 5819 5820 5820 5821 5822 5822 5822 5822 5823 5823 5823 5822 5822 5821 5821 5820 5819 5818 5817 5816 5815 5813
5797 5799 5800 5801 5802 5803 5804 5805 5806 5807 5808 5808 5809 5810 5810 5811 5812 5813 5814 5815 5816 5816 5817 5818 5818 5819 5819 5819 5820 5820 5820 5820 5819 5819 5819 5818 5817 5816 5815 5814 5813 5812 5810
5793 5794 5795 5797 5798 5799 5800 5801 5802 5803 5804 5805 5806 5806 5807 5808 5809 5810 5811 5812 5813 5813 5814 5815 5815 5816 5816 5816 5817 5817 5817 5817 5816 5816 5815 5815 5814 5813 5812 5811 5810 5808 5807
5788 5789 5791 5792 5793 5795 5796 5797 5798 5799 5800 5801 5802 5803 5804 5804 5805 5806 5807 5808 5809 5810 5811 5811 5812 5812 5813 5813 5813 5813 5813 5813 5813 5812 5812 5811 5810 5809 5808 5807 5806 5804 5803
5782 5784 5785 5787 5788 5790 5791 5793 5794 5795 5796 5797 5798 5799 5800 5801 5801 5802 5804 5805 5806 5806 5807 5808 5808 5808 5809 5809 5809 5809 5809 5809 5809 5808 5808 5807 5806 5805 5804 5803 5801 5800 5798
5776 5778 5780 5782 5783 5785 5787 5788 5789 5791 5792 5793 5794 5794 5795 5796 5797 5798 5799 5800 5801 5802 5803 5803 5804 5804 5804 5805 5805 5805 5805 5804 5804 5804 5803 5802 5801 5800 5799 5797 5796 5795 5793
5770 5772 5774 5776 5778 5780 5781 5783 5784 5786 5787 5788 5789 5790 5791 5792 5793 5794 5795 5796 5797 5798 5798 5799 5799 5799 5800 5800 5800 5800 5799 5799 5799 5798 5798 5797 5796 5794 5793 5792 5790 5789 5787
5763 5765 5768 5770 5772 5774 5776 5777 5779 5780 5782 5783 5784 5785 5786 5787 5788 5789 5790 5791 5792 5793 5793 5794 5794 5794 5794 5795 5795 5794 5794 5794 5793 5792 5792 5791 5789 5788 5787 5785 5784 5782 5781
5756 5759 5761 5763 5765 5768 5770 5772 5773 5775 5776 5778 5779 5780 5781 5782 5783 5784 5785 5786 5787 5787 5788 5788 5789 5789 5789 5789 5789 5788 5788 5787 5787 5786 5785 5784 5783 5782 5780 5779 5778 5776 5774
5749 5751 5754 5756 5759 5761 5763 5765 5767 5769 5770 5772 5773 5775 5776 5777 5778 5779 5780 5781 5781 5782 5782 5783 5783 5783 5783 5783 5782 5782 5781 5781 5780 5779 5778 5777 5776 5775 5774 5772 5771 5769 5767
5741 5744 5746 5749 5751 5754 5756 5759 5760 5762 5764 5766 5767 5769 5770 5771 5772 5773 5774 5775 5775 5776 5776 5776 5777 5777 5776 5776 5776 5775 5774 5774 5773 5772 5771 5770 5769 5768 5767 5765 5763 5762 5760
5734 5737 5739 5741 5744 5747 5749 5751 5754 5756 5757 5759 5761 5762 5763 5765 5766 5767 5768 5768 5769 5769 5770 5770 5770 5770 5770 5769 5769 5768 5767 5766 5765 5764 5763 5762 5761 5760 5758 5757 5755 5754 5752
5726 5729 5731 5734 5737 5739 5741 5744 5746 5748 5750 5752 5754 5755 5757 5758 5759 5760 5761 5761 5762 5762 5763 5763 5763 5763 5762 5762 5762 5761 5760 5759 5758 5756 5755 5754 5753 5752 5750 5749 5747 5745 5743
5717 5720 5723 5726 5728 5731 5733 5736 5738 5741 5743 5745 5746 5748 5749 5750 5751 5752 5753 5754 5755 5755 5756 5756 5756 5755 5755 5755 5754 5753 5752 5751 5750 5749 5748 5747 5745 5744 5742 5741 5739 5737 5734
5709 5712 5714 5717 5720 5723 5725 5728 5730 5733 5735 5737 5738 5740 5741 5743 5744 5745 5746 5747 5748 5748 5748 5748 5748 5748 5748 5747 5747 5746 5744 5743 5742 5741 5740 5738 5737 5735 5734 5732 5730 5728 5726
5700 5703 5706 5708 5711 5714 5717 5719 5722 5724 5726 5728 5730 5732 5733 5735 5736 5737 5738 5739 5740 5740 5741 5741 5741 5741 5740 5740 5739 5738 5736 5735 5734 5733 5731 5730 5728 5727 5725 5723 5721 5719 5717
5690 5693 5696 5699 5702 5705 5708 5710 5712 5715 5717 5720 5722 5723 5725 5726 5728 5730 5730 5731 5732 5732 5733 5733 5733 5732 5732 5731 5730 5729 5728 5726 5725 5724 5722 5721 5719 5718 5716 5714 5712 5709 5707
5681 5684 5687 5689 5693 5696 5698 5701 5703 5706 5708 5710 5713 5714 5716 5718 5719 5721 5722 5722 5723 5723 5724 5724 5724 5724 5723 5722 5721 5720 5719 5717 5715 5714 5712 5711 5709 5708 5706 5704 5702 5699 5696
5672 5675 5677 5680 5683 5686 5689 5691 5694 5697 5699 5701 5703 5705 5707 5708 5710 5711 5712 5713 5714 5714 5714 5715 5715 5714 5714 5713 5712 5710 5709 5707 5706 5704 5702 5701 5699 5697 5696 5693 5691 5689 5686
5663 5665 5668 5671 5674 5676 5679 5682 5685 5687 5690 5692 5694 5696 5697 5698 5700 5701 5702 5703 5704 5704 5705 5705 5705 5704 5704 5703 5702 5700 5699 5697 5696 5694 5693 5691 5690 5688 5686 5683 5681 5679 5676
5653 5655 5658 5661 5664 5667 5670 5672 5675 5678 5680 5682 5684 5686 5688 5689 5690 5691 5692 5693 5693 5694 5694 5694 5694 5694 5693 5692 5691 5690 5689 5687 5686 5685 5683 5682 5680 5678 5676 5674 5671 5668 5665